Home > Weather > Drøbak > Past weeks

Flag for Norway Past Weather in Drøbak, Norway — Yesterday and Last 2 Weeks

Now
55 °F

Broken clouds.


Feels Like: 55 °F
Forecast: 54 / 67 °F
Wind: 2 mph from Southwest

Location: Statfjord B

Current Time: Jul 29, 2016 at 9:50:11 PM

Latest Report: Jul 29, 2016 at 8:50 PM


Visibility: N/A

Pressure: 29.65 "Hg

Humidity: 88%

Dew Point: 52 °F

Location of DrøbakLocation

Past Weather in Drøbak — Graph

°F

Drøbak Temperature Yesterday

Maximum temperature yesterday: 57 °F (at 12:20 AM)
Minimum temperature yesterday: 54 °F (at 6:20 AM)
Average temperature yesterday: 56 °F

High & Low Weather Summary for the Past Weeks

 TemperatureHumidityPressure
High75 °F (Jul 21, 8:20 AM)100% (Jul 16, 2:50 AM)30.12 "Hg (Jul 16, 2:50 AM)
Low52 °F (Jul 14, 8:20 PM)54% (Jul 21, 8:20 AM)29.62 "Hg (Jul 28, 6:50 AM)
Average57 °F90%29.89 "Hg
* Reported Jul 14 8:20 PM — Jul 29 8:20 PM, Drøbak, Weather by CustomWeather, © 2016

Note: Actual official high and low records may vary slightly from our data, if they occured in-between our weather recording intervals... More about our weather records

Advertising

Drøbak Weather History for the Previous 24 Hours

Scroll right to see more
 ConditionsComfort  
Time TempWeatherWind HumidityBarometerVisibility
8:20 PM
Fri, Jul 29
55 °FLight rain. Partly sunny.2 mph94%29.65 "HgN/A
7:50 PM57 °FRain. Partly sunny.13 mph82%29.65 "HgN/A
7:20 PM55 °FPartly sunny.9 mph82%29.65 "HgN/A
6:50 PM55 °FPartly sunny.7 mph82%29.68 "HgN/A
6:20 PM57 °FScattered clouds.7 mph82%29.68 "HgN/A
5:50 PM57 °FPartly sunny.7 mph82%29.68 "HgN/A
5:20 PM57 °FPartly sunny.8 mph82%29.68 "HgN/A
4:50 PM59 °FPartly sunny.7 mph77%29.68 "HgN/A
4:20 PM59 °FBroken clouds.7 mph72%29.68 "HgN/A
3:50 PM59 °FBroken clouds.6 mph77%29.68 "HgN/A
3:20 PM59 °FPassing clouds.7 mph77%29.68 "HgN/A
2:50 PM57 °FBroken clouds.7 mph82%29.68 "HgN/A
2:20 PM57 °FPartly sunny.6 mph77%29.68 "HgN/A
1:50 PM57 °FBroken clouds.7 mph77%29.68 "HgN/A
1:20 PM59 °FBroken clouds.8 mph77%29.68 "HgN/A
12:50 PM59 °FPassing clouds.9 mph77%29.68 "HgN/A
12:20 PM57 °FScattered clouds.9 mph82%29.68 "HgN/A
11:50 AM57 °FPartly sunny.9 mph82%29.68 "HgN/A
11:20 AM57 °FPassing clouds.9 mph82%29.68 "HgN/A
10:50 AM57 °FPassing clouds.14 mph77%29.68 "HgN/A
10:20 AM55 °FPassing clouds.16 mph88%29.68 "HgN/A
9:50 AM55 °FPassing clouds.15 mph88%29.65 "HgN/A
9:20 AM55 °FBroken clouds.14 mph88%29.65 "HgN/A
8:50 AM55 °FBroken clouds.14 mph94%29.65 "HgN/A
8:20 AM55 °FBroken clouds.17 mph94%29.65 "HgN/A
7:50 AM54 °FBroken clouds.18 mph94%29.65 "HgN/A
7:20 AM54 °FLight rain. Broken clouds.20 mph94%29.65 "HgN/A
6:50 AM54 °FLight rain. Broken clouds.21 mph94%29.65 "HgN/A
6:20 AM54 °FSprinkles. Partly sunny.17 mph100%29.65 "HgN/A
5:50 AM54 °FSprinkles. Passing clouds.18 mph94%29.65 "HgN/A
5:20 AM54 °FLight rain. Passing clouds.18 mph94%29.65 "HgN/A
4:50 AM54 °FLight rain. Passing clouds.18 mph100%29.65 "HgN/A
4:20 AM54 °FLight rain. Passing clouds.18 mph100%29.65 "HgN/A
3:50 AM54 °FLight rain. Passing clouds.17 mph100%29.65 "HgN/A
3:20 AM54 °FLight rain. Partly cloudy.18 mph100%29.65 "HgN/A
2:50 AM54 °FLight rain. Passing clouds.17 mph100%29.65 "HgN/A
2:20 AM54 °FLight rain. Passing clouds.17 mph100%29.68 "HgN/A
1:50 AM54 °FLight rain. Passing clouds.18 mph100%29.68 "HgN/A
1:20 AM55 °FLight rain. Passing clouds.18 mph94%29.68 "HgN/A
12:50 AM55 °FLight rain. Passing clouds.13 mph94%29.68 "HgN/A
12:20 AM55 °FLight rain. Passing clouds.10 mph94%29.71 "HgN/A
11:50 PM
Thu, Jul 28
55 °FLight rain. Passing clouds.10 mph94%29.71 "HgN/A
11:20 PM55 °FLight rain. Passing clouds.8 mph94%29.71 "HgN/A
10:50 PM55 °FSprinkles. Broken clouds.10 mph94%29.71 "HgN/A
10:20 PM55 °FRain showers. Partly sunny.No wind94%29.74 "HgN/A
9:50 PM55 °FPartly sunny.9 mph88%29.74 "HgN/A
9:20 PM55 °FBroken clouds.8 mph88%29.74 "HgN/A
Weather by CustomWeather, © 2016

See weather overviewHow to use our weather pages